CAT,Max TemperatureF,Mean TemperatureF,Min TemperatureF,Max Dew PointF,MeanDew PointF,Min DewpointF,Max Humidity, Mean Humidity, Min Humidity, Max Sea Level PressureIn, Mean Sea Level PressureIn, Min Sea Level PressureIn, Max VisibilityMiles, Mean VisibilityMiles, Min VisibilityMiles, Max Wind SpeedMPH, Mean Wind SpeedMPH, Max Gust SpeedMPH,PrecipitationIn, CloudCover, Events, WindDirDegrees
2011-12-1,91,78,64,55,52,48,64,37,24,30.12,30.07,30.01,6,6,6,10,6,,0.00,2,,37
2011-12-2,93,80,66,57,53,48,64,38,23,30.09,30.05,29.98,6,6,6,7,4,,0.00,4,,235
2011-12-3,87,78,68,66,61,57,88,62,38,30.12,30.05,29.98,6,6,6,15,5,,0.00,5,Rain-Thunderstorm,152
2011-12-4,75,70,62,63,60,57,88,74,61,30.18,30.12,30.06,6,6,6,21,16,,0.00,6,,132
2011-12-5,75,68,60,61,57,55,88,67,53,30.21,30.15,30.09,6,6,6,14,9,,0.00,6,,125
2011-12-6,87,72,57,57,51,46,88,46,25,30.18,30.09,30.01,,,,10,6,,0.00,,,179
2011-12-7,89,76,62,50,48,45,59,33,23,30.09,30.02,29.95,,,,15,6,,0.00,,,124
2011-12-8,87,76,66,59,53,46,68,42,29,30.01,29.96,29.89,6,6,6,9,3,,0.00,6,,142
2011-12-9,77,72,68,59,57,54,64,58,50,30.06,30.02,29.95,6,6,6,17,11,,0.00,7,,145
2011-12-10,68,65,62,63,60,57,88,81,73,30.09,30.06,29.98,6,6,6,10,7,,0.00,7,Rain,108
2011-12-11,80,71,62,64,61,59,88,70,48,30.09,30.02,29.95,6,6,6,12,5,,0.00,5,Rain-Thunderstorm,75
2011-12-12,77,70,64,68,65,63,94,83,65,30.04,30.01,29.98,6,6,5,12,5,,0.00,5,Rain-Thunderstorm,30
2011-12-13,84,73,62,64,61,57,94,64,40,30.04,30.00,29.92,6,6,3,14,5,,0.00,5,Rain-Thunderstorm,79
2011-12-14,78,70,62,68,64,61,94,73,61,30.04,30.00,29.92,6,6,5,12,8,,0.00,6,Rain-Thunderstorm,48
2011-12-15,82,73,64,64,62,59,88,64,48,30.09,30.06,30.01,6,6,6,12,4,,0.00,6,Thunderstorm,45
2011-12-16,80,70,66,66,64,61,94,77,58,30.12,30.12,30.09,6,6,6,14,4,,0.00,6,,85
2011-12-17,75,70,66,64,63,61,83,74,65,30.18,30.13,30.06,6,6,6,18,14,,0.00,6,Rain,157
2011-12-18,78,70,62,59,56,50,83,60,36,30.21,30.15,30.06,6,6,6,14,11,,0.00,3,,132
2011-12-19,84,70,57,52,43,36,82,35,19,30.18,30.12,30.06,6,6,6,14,7,,0.00,1,,145
2011-12-20,82,70,59,50,47,43,68,39,25,30.15,30.11,30.06,,,,20,7,,0.00,,,146
2011-12-21,84,72,59,64,50,46,100,43,27,30.12,30.06,30.01,,,,9,6,,0.00,,,145
2011-12-22,87,73,59,55,46,39,72,36,19,30.06,30.02,29.95,,,,12,5,,0.00,,,126
2011-12-23,91,80,68,57,53,50,53,41,27,30.09,30.05,30.01,6,6,6,6,3,,0.00,2,,58
2011-12-24,91,80,68,64,58,52,78,48,29,30.12,30.06,29.98,6,6,6,17,7,24,0.00,4,Rain-Thunderstorm,66
2011-12-25,84,74,64,63,59,54,83,58,35,30.15,30.11,30.04,6,6,6,10,7,,0.00,5,,108
2011-12-26,80,73,66,64,64,63,88,71,57,30.24,30.17,30.12,6,6,6,10,6,,0.00,6,Rain-Thunderstorm,98
2011-12-27,78,72,66,70,65,61,88,77,61,30.21,30.14,30.06,6,6,6,12,6,,0.00,5,Rain-Thunderstorm,124
2011-12-28,80,73,66,68,65,63,94,72,58,30.12,30.05,29.95,6,6,6,8,3,,0.00,5,Thunderstorm,70
2011-12-29,78,73,68,64,63,63,83,72,57,30.09,30.06,30.04,6,6,6,12,6,,0.00,5,,156
2011-12-30,75,70,64,63,61,61,88,76,61,30.12,30.08,30.04,6,6,6,16,11,,0.00,5,,152
2011-12-31,80,72,64,63,61,59,83,70,51,30.09,30.07,30.06,6,6,6,8,4,,0.00,6,,122